Atlanta Dekalb, GA

2:09 AM EDT on April 21, 2018 (GMT -0400)
Dekalb-Peachtree

Weather History for KPDK - March, 2013

Change the Weather History Date:

Sunday, March 17, 2013

  Actual Average Record
Temperature  
Mean Temperature 60 °F 54 °F  
Max Temperature 71 °F 65 °F 82 °F (2002)
Min Temperature 52 °F 42 °F 30 °F (2017)
Degree Days  
Heating Degree Days 4 12  
Month to date heating degree days 235  
Since 1 July heating degree days 2636  
Cooling Degree Days 0 0  
Month to date cooling degree days 0  
Year to date cooling degree days 0  
Growing Degree Days 10 (Base 50)    
Moisture  
Dew Point 48 °F    
Average Humidity 62    
Maximum Humidity 80    
Minimum Humidity 47    
Precipitation  
Precipitation 0.00 in 0.17 in 0.46 in (2003)
Month to date precipitation 2.85  
Year to date precipitation 12.66  
Snow  
Snow 0.00 in - - ()
Month to date snowfall  
Since 1 July snowfall  
Snow Depth -    
Sea Level Pressure  
Sea Level Pressure 29.95 in    
Wind  
Wind Speed 8 mph (SW)    
Max Wind Speed 16 mph    
Max Gust Speed 17 mph    
Visibility 10 miles    
Events      
T = Trace of Precipitation, MM = Missing Value Source: NWS Daily Summary

Daily Weather History Graph

Daily Weather History Graph

Search for Another Location

Airport or City:

Astronomy

Mar. 17, 2013 Rise Set
Actual Time 7:44 AM EDT 7:46 PM EDT
Civil Twilight 7:19 AM EDT 8:11 PM EDT
Nautical Twilight 6:50 AM EDT 8:40 PM EDT
Astronomical Twilight 6:21 AM EDT 9:09 PM EDT
Moon 11:11 AM EDT (3/17) 12:39 AM EDT (3/17)
Length of Visible Light 12h 51m
Length of Day
12h 02m
Waxing Crescent, 31% of the Moon is Illuminated
Mar 17
Waxing Crescent
Mar 19
First Quarter
Mar 27
Full
Apr 3
Last Quarter
Apr 10
New

Hourly Weather History & Observations

Time (EDT) Temp. Dew Point Humidity Pressure Visibility Wind Dir Wind Speed Gust Speed Precip Events Conditions
12:53 AM 61.0 °F 41.0 °F 48% 29.95 in 10.0 mi WSW 5.8 mph - N/A   Clear
1:53 AM 57.0 °F 42.1 °F 57% 29.95 in 10.0 mi SW 6.9 mph - N/A   Clear
2:53 AM 59.0 °F 43.0 °F 55% 29.95 in 10.0 mi SW 11.5 mph - N/A   Clear
3:53 AM 57.9 °F 44.1 °F 60% 29.95 in 10.0 mi SW 9.2 mph - N/A   Clear
4:53 AM 55.9 °F 45.0 °F 67% 29.94 in 10.0 mi SW 8.1 mph - N/A   Clear
5:53 AM 55.0 °F 46.0 °F 72% 29.95 in 10.0 mi SW 10.4 mph - N/A   Clear
6:53 AM 52.0 °F 46.0 °F 80% 29.96 in 10.0 mi SW 4.6 mph - N/A   Clear
7:53 AM 53.1 °F 46.9 °F 80% 29.99 in 10.0 mi SW 6.9 mph - N/A   Clear
8:53 AM 55.9 °F 48.9 °F 77% 30.01 in 10.0 mi SW 5.8 mph - N/A   Clear
9:53 AM 60.1 °F 50.0 °F 69% 30.00 in 10.0 mi SW 9.2 mph - N/A   Clear
10:53 AM 61.0 °F 51.1 °F 70% 30.01 in 10.0 mi West 8.1 mph - N/A   Clear
11:53 AM 64.0 °F 52.0 °F 65% 29.99 in 10.0 mi West 8.1 mph - N/A   Clear
12:53 PM 66.9 °F 52.0 °F 59% 29.98 in 10.0 mi SSW 6.9 mph - N/A   Scattered Clouds
1:53 PM 68.0 °F 51.1 °F 55% 29.96 in 10.0 mi WSW 9.2 mph 17.3 mph N/A   Partly Cloudy
2:53 PM 69.1 °F 50.0 °F 51% 29.94 in 10.0 mi SW 10.4 mph - N/A   Partly Cloudy
3:53 PM 69.1 °F 48.9 °F 49% 29.91 in 10.0 mi SSW 9.2 mph - N/A   Scattered Clouds
4:53 PM 68.0 °F 46.9 °F 47% 29.91 in 10.0 mi SW 16.1 mph - N/A   Partly Cloudy
5:53 PM 66.9 °F 46.0 °F 47% 29.91 in 10.0 mi SSW 10.4 mph - N/A   Clear
6:53 PM 66.0 °F 46.0 °F 48% 29.92 in 10.0 mi SW 11.5 mph - N/A   Clear
7:53 PM 64.9 °F 48.9 °F 56% 29.94 in 10.0 mi SSW 12.7 mph - N/A   Clear
8:53 PM 63.0 °F 48.9 °F 60% 29.94 in 10.0 mi SSW 4.6 mph - N/A   Clear
9:53 PM 62.1 °F 50.0 °F 65% 29.94 in 10.0 mi South 3.5 mph - N/A   Clear
10:53 PM 61.0 °F 51.1 °F 70% 29.96 in 10.0 mi South 5.8 mph - N/A   Scattered Clouds
11:53 PM 60.1 °F 51.1 °F 72% 29.96 in 10.0 mi South 3.5 mph - N/A   Partly Cloudy